Weather History for KMMH - February, 2013

Change the Weather History Date:

Tuesday, February 5, 2013

  Actual Average (KBIH) Record (KBIH)
Temperature  
Mean Temperature 36 °F 40 °F  
Max Temperature 51 °F 56 °F 74 °F (2001)
Min Temperature 21 °F 25 °F 9 °F (1985)
Degree Days  
Heating Degree Days 29 25  
Month to date heating degree days 125  
Since 1 July heating degree days 2694  
Cooling Degree Days 0 0  
Month to date cooling degree days 0  
Year to date cooling degree days 0  
Moisture  
Dew Point 16 °F    
Average Humidity 54    
Maximum Humidity 93    
Minimum Humidity 16    
Precipitation  
Precipitation 0.00 in 0.03 in 0.48 in (1978)
Month to date precipitation 0.14  
Year to date precipitation 1.19  
Snow  
Snow 0.00 in 0.00 in 5.50 in (1976)
Month to date snowfall 0.0  
Since 1 July snowfall 5.8  
Snow Depth -    
Sea Level Pressure  
Sea Level Pressure 30.06 in    
Wind  
Wind Speed 4 mph (South)    
Max Wind Speed 20 mph    
Max Gust Speed 31 mph    
Visibility 10 miles    
Events      
T = Trace of Precipitation, MM = Missing Value Source: NWS Daily Summary

Daily Weather History Graph

Daily Weather History Graph

Search for Another Location

Airport or City:

Trip Planner

Search our weather history database for the weather conditions in past years. The results will help you decide how hot, cold, wet, or windy it might be!

Date:

Astronomy

Feb. 05, 2013 Rise Set
Actual Time 6:55 AM PST 5:24 PM PST
Civil Twilight 6:27 AM PST 5:51 PM PST
Nautical Twilight 5:56 AM PST 6:22 PM PST
Astronomical Twilight 5:26 AM PST 6:53 PM PST
Moon 2:40 AM PST (2/5) 12:48 PM PST (2/5)
Length of Visible Light 11h 23m
Length of Day
10h 29m
Waning Crescent, 25% of the Moon is Illuminated
Feb 5
Waning Crescent
Feb 9
New
Feb 17
First Quarter
Feb 25
Full
Mar 4
Last Quarter

Hourly Weather History & Observations

Time (PST) Temp. Windchill Dew Point Humidity Pressure Visibility Wind Dir Wind Speed Gust Speed Precip Events Conditions
12:15 AM 24.8 °F - 21.2 °F 86% 30.16 in 10.0 mi Calm Calm - N/A   Clear
12:35 AM 24.8 °F - 21.2 °F 86% 30.16 in 10.0 mi Calm Calm - N/A   Clear
12:55 AM 24.8 °F - 21.2 °F 86% 30.15 in 10.0 mi Calm Calm - N/A   Clear
1:15 AM 24.8 °F - 21.2 °F 86% 30.15 in 10.0 mi Calm Calm - N/A   Clear
1:35 AM 26.6 °F 22.6 °F 19.4 °F 74% 30.15 in 10.0 mi NW 3.5 mph - N/A   Clear
1:55 AM 24.8 °F - 19.4 °F 80% 30.15 in 10.0 mi Calm Calm - N/A   Clear
2:15 AM 24.8 °F - 19.4 °F 80% 30.13 in 10.0 mi Calm Calm - N/A   Clear
2:55 AM 23.0 °F - 19.4 °F 86% 30.13 in 10.0 mi Calm Calm - N/A   Clear
3:15 AM 24.8 °F - 19.4 °F 80% 30.12 in 10.0 mi North - - N/A   Clear
3:35 AM 23.0 °F 17.0 °F 19.4 °F 86% 30.12 in 10.0 mi West 4.6 mph - N/A   Clear
3:55 AM 23.0 °F 18.4 °F 19.4 °F 86% 30.12 in 10.0 mi North 3.5 mph - N/A   Clear
4:15 AM 24.8 °F 20.5 °F 19.4 °F 80% 30.12 in 10.0 mi NW 3.5 mph - N/A   Clear
4:35 AM 23.0 °F - 19.4 °F 86% 30.12 in 10.0 mi Calm Calm - N/A   Clear
4:55 AM 24.8 °F 19.1 °F 19.4 °F 80% 30.12 in 10.0 mi SSE 4.6 mph - N/A   Clear
5:15 AM 23.0 °F - 21.2 °F 93% 30.11 in 10.0 mi Calm Calm - N/A   Clear
5:35 AM 23.0 °F 18.4 °F 19.4 °F 86% 30.10 in 10.0 mi SSE 3.5 mph - N/A   Clear
5:55 AM 21.2 °F 14.9 °F 19.4 °F 93% 30.09 in 10.0 mi NW 4.6 mph - N/A   Clear
6:15 AM 21.2 °F - 19.4 °F 93% 30.09 in 10.0 mi Calm Calm - N/A   Clear
6:35 AM 21.2 °F 16.4 °F 17.6 °F 86% 30.09 in 10.0 mi North 3.5 mph - N/A   Clear
6:55 AM 21.2 °F 13.6 °F 17.6 °F 86% 30.10 in 10.0 mi NNW 5.8 mph - N/A   Clear
7:15 AM 21.2 °F - 19.4 °F 93% 30.10 in 10.0 mi North - - N/A   Clear
7:35 AM 24.8 °F - 19.4 °F 80% 30.10 in 10.0 mi North - - N/A   Clear
7:55 AM 24.8 °F - 21.2 °F 86% 30.11 in 10.0 mi Calm Calm - N/A   Clear
8:15 AM 24.8 °F - 21.2 °F 86% 30.12 in 10.0 mi Calm Calm - N/A   Clear
8:35 AM 26.6 °F 21.2 °F 21.2 °F 80% 30.12 in 10.0 mi SSE 4.6 mph - N/A   Clear
8:55 AM 28.4 °F 24.6 °F 21.2 °F 74% 30.12 in 10.0 mi ESE 3.5 mph - N/A   Clear
9:15 AM 28.4 °F 22.2 °F 21.2 °F 74% 30.12 in 10.0 mi SSE 5.8 mph - N/A   Clear
9:35 AM 33.8 °F - 23.0 °F 65% 30.12 in 10.0 mi Calm Calm - N/A   Clear
9:55 AM 37.4 °F - 23.0 °F 56% 30.11 in 10.0 mi Calm Calm - N/A   Clear
10:15 AM 42.8 °F 40.1 °F 21.2 °F 42% 30.10 in 10.0 mi SE 4.6 mph - N/A   Clear
10:35 AM 42.8 °F 37.5 °F 21.2 °F 42% 30.10 in 10.0 mi SE 9.2 mph - N/A   Clear
10:55 AM 46.4 °F 45.2 °F 15.8 °F 29% 30.09 in 10.0 mi ESE 3.5 mph - N/A   Clear
11:15 AM 48.2 °F - 17.6 °F 30% 30.08 in 10.0 mi SE 4.6 mph - N/A   Clear
11:35 AM 48.2 °F - 15.8 °F 27% 30.07 in 10.0 mi East 6.9 mph - N/A   Clear
11:55 AM 51.8 °F - 12.2 °F 21% 30.05 in 10.0 mi ESE 6.9 mph - N/A   Clear
12:15 PM 50.0 °F - 14.0 °F 24% 30.04 in 10.0 mi East 6.9 mph - N/A   Clear
12:35 PM 51.8 °F - 10.4 °F 19% 30.03 in 10.0 mi SE 6.9 mph - N/A   Clear
12:55 PM 51.8 °F - 12.2 °F 21% 30.02 in 10.0 mi ESE 9.2 mph - N/A   Clear
1:15 PM 51.8 °F - 10.4 °F 19% 30.01 in 10.0 mi SSE 4.6 mph - N/A   Clear
1:35 PM 51.8 °F - 8.6 °F 18% 30.00 in 10.0 mi Calm Calm - N/A   Clear
1:55 PM 51.8 °F - 8.6 °F 18% 29.99 in 10.0 mi SSE 8.1 mph 17.3 mph N/A   Clear
2:15 PM 51.8 °F - 6.8 °F 16% 29.99 in 10.0 mi SW 11.5 mph 23.0 mph N/A   Clear
2:35 PM 50.0 °F - 8.6 °F 19% 29.99 in 10.0 mi SW 19.6 mph 31.1 mph N/A   Clear
2:55 PM 50.0 °F - 5.0 °F 16% 29.99 in 10.0 mi SW 16.1 mph 20.7 mph N/A   Clear
3:15 PM 48.2 °F - 8.6 °F 20% 29.99 in 10.0 mi SW 15.0 mph 25.3 mph N/A   Clear
3:35 PM 46.4 °F 40.7 °F 10.4 °F 23% 29.99 in 10.0 mi SW 12.7 mph 21.9 mph N/A   Clear
4:15 PM 42.8 °F 41.1 °F 10.4 °F 27% 29.99 in 10.0 mi North 3.5 mph - N/A   Clear
4:35 PM 44.6 °F 38.8 °F 6.8 °F 21% 30.00 in 10.0 mi WSW 11.5 mph 18.4 mph N/A   Clear
4:55 PM 42.8 °F 37.5 °F 12.2 °F 29% 30.01 in 10.0 mi NW 9.2 mph 16.1 mph N/A   Clear
5:15 PM 42.8 °F 36.2 °F 6.8 °F 23% 30.00 in 10.0 mi SW 12.7 mph 18.4 mph N/A   Clear
5:35 PM 42.8 °F 34.3 °F 5.0 °F 21% 29.99 in 10.0 mi SSW 19.6 mph 25.3 mph N/A   Clear
6:15 PM 39.2 °F 35.9 °F 10.4 °F 31% 30.00 in 10.0 mi NW 4.6 mph - N/A   Clear
6:35 PM 37.4 °F 30.3 °F 14.0 °F 38% 30.01 in 10.0 mi NW 10.4 mph - N/A   Clear
7:15 PM 35.6 °F 29.9 °F 12.2 °F 38% 30.00 in 10.0 mi NW 6.9 mph - N/A   Clear
7:35 PM 35.6 °F - 12.2 °F 38% 30.01 in 10.0 mi North - - N/A   Clear
7:55 PM 33.8 °F - 15.8 °F 48% 30.00 in 10.0 mi North - - N/A   Clear
8:15 PM 35.6 °F - 14.0 °F 41% 30.01 in 10.0 mi North - - N/A   Clear
8:35 PM 33.8 °F - 14.0 °F 44% 30.00 in 10.0 mi North - - N/A   Clear
8:55 PM 37.4 °F 31.4 °F 6.8 °F 28% 29.99 in 10.0 mi South 8.1 mph - N/A   Clear
9:15 PM 32.0 °F - 15.8 °F 51% 30.01 in 10.0 mi Calm Calm - N/A   Clear
9:35 PM 32.0 °F 24.2 °F 15.8 °F 51% 30.00 in 10.0 mi East 9.2 mph - N/A   Clear
10:15 PM 32.0 °F 23.0 °F 15.8 °F 51% 30.01 in 10.0 mi East 11.5 mph 16.1 mph N/A   Clear
10:35 PM 32.0 °F - 15.8 °F 51% 30.02 in 10.0 mi North - - N/A   Clear
10:55 PM 32.0 °F - 14.0 °F 48% 30.03 in 10.0 mi North - - N/A   Clear
11:15 PM 30.2 °F - 15.8 °F 55% 30.03 in 10.0 mi North - - N/A   Clear
11:35 PM 32.0 °F 24.2 °F 17.6 °F 55% 30.04 in 10.0 mi WSW 9.2 mph 17.3 mph N/A   Clear
11:55 PM 32.0 °F 27.5 °F 15.8 °F 51% 30.04 in 10.0 mi WNW 4.6 mph - N/A   Clear